North Island, CA

2:46 AM PDT on April 29, 2017 (GMT -0700)
North Island Naval Air Station

Weather History for KNZY - March, 2014

Change the Weather History Date:

Wednesday, March 19, 2014

  Actual Average Record
Temperature  
Mean Temperature 66 °F -  
Max Temperature 73 °F 62 °F 86 °F (1997)
Min Temperature 61 °F 51 °F 46 °F (1999)
Cooling Degree Days 2    
Growing Degree Days 16 (Base 50)    
Moisture  
Dew Point 54 °F    
Average Humidity 63    
Maximum Humidity 73    
Minimum Humidity 51    
Precipitation  
Precipitation 0.00 in - - ()
Sea Level Pressure  
Sea Level Pressure 30.01 in    
Wind  
Wind Speed 3 mph (SW)    
Max Wind Speed 10 mph    
Max Gust Speed -    
Visibility 8 miles    
Events      
Averages and records for this station are not official NWS values.
T = Trace of Precipitation, MM = Missing Value Source: NWS Daily Summary

Daily Weather History Graph

Daily Weather History Graph

Search for Another Location

Airport or City:

Trip Planner

Search our weather history database for the weather conditions in past years. The results will help you decide how hot, cold, wet, or windy it might be!

Date:

Astronomy

Mar. 19, 2014 Rise Set
Actual Time 6:53 AM PDT 6:59 PM PDT
Civil Twilight 6:29 AM PDT 7:24 PM PDT
Nautical Twilight 6:00 AM PDT 7:53 PM PDT
Astronomical Twilight 5:31 AM PDT 8:21 PM PDT
Moon 10:10 PM PDT (3/19) 8:32 AM PDT (3/19)
Length of Visible Light 12h 55m
Length of Day
12h 06m
Waning Gibbous, 90% of the Moon is Illuminated
Mar 19
Waning Gibbous
Mar 23
Last Quarter
Mar 30
New
Apr 7
First Quarter
Apr 15
Full

Hourly Weather History & Observations

Time (PDT) Temp. Dew Point Humidity Pressure Visibility Wind Dir Wind Speed Gust Speed Precip Events Conditions
12:52 AM 66.0 °F 54.0 °F 65% 29.94 in 9.0 mi Calm Calm - N/A   Mostly Cloudy
1:52 AM 66.0 °F 53.1 °F 63% 29.95 in 9.0 mi SE 3.5 mph - N/A   Mostly Cloudy
2:52 AM 64.9 °F 52.0 °F 63% 29.95 in 9.0 mi SSE 3.5 mph - N/A   Mostly Cloudy
3:52 AM 64.9 °F 53.1 °F 65% 29.95 in 9.0 mi NW 4.6 mph - N/A   Mostly Cloudy
4:52 AM 63.0 °F 52.0 °F 67% 29.96 in 9.0 mi East 5.8 mph - N/A   Scattered Clouds
5:52 AM 61.0 °F 51.1 °F 70% 29.96 in 8.0 mi ENE 3.5 mph - N/A   Scattered Clouds
6:42 AM 61.0 °F 52.0 °F 72% 29.98 in 8.0 mi Calm Calm - N/A   Mostly Cloudy
6:52 AM 62.1 °F 52.0 °F 70% 29.99 in 8.0 mi Calm Calm - N/A   Mostly Cloudy
7:52 AM 63.0 °F 53.1 °F 70% 30.01 in 8.0 mi East 3.5 mph - N/A   Mostly Cloudy
8:25 AM 66.0 °F 54.0 °F 65% 30.02 in 8.0 mi Calm Calm - N/A   Scattered Clouds
8:52 AM 66.9 °F 53.1 °F 61% 30.03 in 8.0 mi Calm Calm - N/A   Scattered Clouds
9:52 AM 70.0 °F 53.1 °F 55% 30.04 in 7.0 mi Calm Calm - N/A   Partly Cloudy
10:52 AM 69.1 °F 53.1 °F 57% 30.04 in 7.0 mi SSW 8.1 mph - N/A   Partly Cloudy
11:52 AM 72.0 °F 53.1 °F 51% 30.04 in 9.0 mi WSW 8.1 mph - N/A   Clear
12:52 PM 72.0 °F 53.1 °F 51% 30.03 in 9.0 mi WSW 9.2 mph - N/A   Clear
1:52 PM 72.0 °F 54.0 °F 53% 30.03 in 8.0 mi SW 10.4 mph - N/A   Clear
2:52 PM 72.0 °F 54.0 °F 53% 30.02 in 8.0 mi WSW 8.1 mph - N/A   Partly Cloudy
3:52 PM 72.0 °F 55.0 °F 55% 30.03 in 9.0 mi SSW 8.1 mph - N/A   Scattered Clouds
4:52 PM 71.1 °F 55.0 °F 57% 30.03 in 9.0 mi SW 8.1 mph - N/A   Scattered Clouds
5:52 PM 70.0 °F 55.0 °F 59% 30.02 in 10.0 mi SSW 6.9 mph - N/A   Scattered Clouds
6:52 PM 66.9 °F 54.0 °F 63% 30.01 in 10.0 mi SSW 5.8 mph - N/A   Scattered Clouds
7:52 PM 66.0 °F 55.0 °F 68% 30.01 in 9.0 mi WSW 3.5 mph - N/A   Scattered Clouds
8:52 PM 64.9 °F 55.0 °F 70% 30.03 in 8.0 mi West 3.5 mph - N/A   Scattered Clouds
9:52 PM 64.0 °F 54.0 °F 70% 30.04 in 8.0 mi Calm Calm - N/A   Scattered Clouds
10:52 PM 64.0 °F 55.0 °F 73% 30.05 in 7.0 mi WSW 4.6 mph - N/A   Scattered Clouds
11:52 PM 64.0 °F 55.0 °F 73% 30.05 in 7.0 mi WNW 4.6 mph - N/A   Scattered Clouds